K5LRY-13 Weather Reports


Display with metric or nautical units.
time (UTC)temp
F
wind
direction
speed
MPH
gust
MPH
rain 1hr
in
rain 24hr
in
rain mn
in
humidity
%
barometer
mb
20260502163325 50 279 5.0 9.0 0.00 0.06 0.01 43 1030.2
20260502161817 49 50 3.0 8.0 0.00 0.06 0.01 30 1029.8
20260502160312 48 35 2.0 8.0 0.00 0.06 0.01 36 1029.8
20260502151831 43 74 4.0 9.0 0.01 0.06 0.01 41 1029.7
20260502150326 41 75 2.0 6.0 0.01 0.06 0.01 53 1029.3
20260502130327 29 45 2.0 5.0 0.00 0.05 0.00 86 1028.3
20260502123322 29 47 1.0 4.0 0.00 0.05 0.00 85 1028.2
20260502121834 30 47 0.0 5.0 0.00 0.05 0.00 85 1028.1
20260502120321 30 53 4.0 7.0 0.00 0.05 0.00 86 1028.1
20260502114838 30 34 4.0 8.0 0.00 0.05 0.00 86 1028.0
20260502113333 30 37 5.0 10.0 0.00 0.05 0.00 87 1028.1
20260502111819 30 40 2.0 4.0 0.00 0.05 0.00 87 1028.2
20260502110317 30 56 4.0 9.0 0.00 0.05 0.00 87 1028.3
20260502104837 31 43 3.0 6.0 0.00 0.05 0.00 87 1028.2
20260502103325 31 48 3.0 6.0 0.00 0.05 0.00 88 1028.2
20260502101817 31 29 3.0 9.0 0.00 0.05 0.00 88 1028.0
20260502100331 31 47 3.0 10.0 0.00 0.05 0.00 89 1027.9
20260502090356 32 56 3.0 8.0 0.00 0.05 0.00 87 1027.4
20260502070324 33 32 5.0 8.0 0.00 0.05 0.00 87 1027.6
20260502064817 33 32 4.0 11.0 0.00 0.05 0.00 87 1027.6
20260502063312 33 20 5.0 13.0 0.00 0.05 0.00 87 1027.7
20260502061825 33 56 4.0 9.0 0.00 0.05 0.05 87 1027.6
20260502060312 33 48 2.0 7.0 0.00 0.05 0.05 86 1027.3
20260502054834 33 59 3.0 9.0 0.00 0.05 0.05 86 1027.0
20260502053351 33 28 5.0 9.0 0.00 0.05 0.05 86 1027.0
20260502051843 34 25 4.0 8.0 0.00 0.05 0.05 85 1027.0
20260502050315 34 48 3.0 11.0 0.00 0.05 0.05 85 1027.0
20260502044818 34 70 7.0 13.0 0.00 0.05 0.05 86 1027.1
20260502043313 34 29 4.0 10.0 0.00 0.05 0.05 85 1026.9
20260502041826 34 44 5.0 14.0 0.00 0.05 0.05 85 1026.7
20260502040325 35 9 4.0 12.0 0.00 0.05 0.05 85 1026.5
20260502034838 35 24 3.0 11.0 0.00 0.05 0.05 86 1026.6
20260502033334 35 29 4.0 13.0 0.00 0.05 0.05 85 1026.8
20260502031826 35 25 2.0 12.0 0.00 0.05 0.05 85 1026.5
20260502030341 35 28 6.0 12.0 0.00 0.05 0.05 85 1026.1
20260502024814 36 18 4.0 10.0 0.00 0.05 0.05 85 1026.1
20260502023350 36 27 4.0 11.0 0.00 0.05 0.05 84 1026.1
20260502021821 36 350 3.0 13.0 0.00 0.05 0.05 82 1025.5
20260502020314 37 25 5.0 16.0 0.00 0.05 0.05 81 1025.1
20260502014835 38 26 2.0 9.0 0.00 0.05 0.05 79 1025.0
20260502013330 39 35 6.0 12.0 0.00 0.05 0.05 77 1024.7
20260502011814 39 48 6.0 12.0 0.00 0.05 0.05 75 1024.5
20260502010328 39 110 3.0 8.0 0.00 0.05 0.05 75 1024.2
20260502004822 40 36 4.0 15.0 0.00 0.05 0.05 73 1023.7
20260502003318 42 54 7.0 13.0 0.00 0.05 0.05 70 1023.7
20260502001831 44 8 1.0 9.0 0.00 0.05 0.05 69 1023.6
20260502000347 45 54 5.0 9.0 0.00 0.05 0.05 62 1023.8
20260501234817 47 27 4.0 11.0 0.00 0.05 0.05 59 1023.7
20260501233312 51 55 2.0 11.0 0.00 0.05 0.05 53 1023.4
20260501231831 54 43 6.0 12.0 0.00 0.05 0.05 48 1022.9
20260501230318 54 59 5.0 12.0 0.00 0.05 0.05 54 1022.8
20260501224814 52 25 3.0 10.0 0.00 0.05 0.05 60 1022.7
20260501223329 51 50 3.0 10.0 0.00 0.05 0.05 65 1022.8
20260501221821 49 23 4.0 10.0 0.01 0.05 0.05 71 1022.7
20260501220314 47 40 2.0 7.0 0.03 0.05 0.05 77 1022.8
20260501214829 43 70 4.0 11.0 0.04 0.05 0.05 82 1023.0
20260501213324 39 300 3.0 16.0 0.05 0.05 0.05 86 1024.1
20260501211815 38 342 1.0 14.0 0.04 0.04 0.04 82 1025.3
20260501210330 39 337 5.0 10.0 0.02 0.02 0.02 78 1025.0
20260501204824 42 23 2.0 5.0 0.01 0.01 0.01 70 1025.0
20260501203322 45 27 3.0 12.0 0.00 0.00 0.00 61 1024.3
20260501201823 48 24 2.0 5.0 0.00 0.00 0.00 46 1024.0
20260501200337 52 25 2.0 9.0 0.00 0.00 0.00 42 1023.9
20260501194830 56 148 3.0 11.0 0.00 0.00 0.00 31 1023.7
20260501193320 55 267 5.0 13.0 0.00 0.00 0.00 32 1023.2
20260501191812 54 289 3.0 11.0 0.00 0.00 0.00 40 1023.0
20260501190353 53 220 4.0 10.0 0.00 0.00 0.00 40 1023.1
20260501184819 51 293 7.0 19.0 0.00 0.00 0.00 48 1023.1
20260501183319 51 268 4.0 10.0 0.00 0.00 0.00 46 1023.1
20260501181811 51 245 4.0 9.0 0.00 0.00 0.00 42 1023.3
20260501180326 49 272 3.0 10.0 0.00 0.00 0.00 52 1023.4
20260501174819 47 257 3.0 7.0 0.00 0.00 0.00 54 1023.6
20260501173315 46 245 3.0 7.0 0.00 0.00 0.00 57 1023.7
20260501171828 47 239 2.0 5.0 0.00 0.00 0.00 56 1023.7
20260501170322 48 291 3.0 9.0 0.00 0.00 0.00 53 1023.7
20260501164837 45 56 1.0 6.0 0.00 0.00 0.00 64 1023.5